Location: East Guldeford
(50.9500°N, 0.7500°E)
Time: 09:01:09
(UTC+00:00)

BREEZE-M R/B - Pass Details

Date: 12 May 2021
Orbit: 311 x 4502 km, 49.7° (Epoch: 16 June)

Event Time Altitude Azimuth Distance (km) Brightness Sun altitude
Rises 22:04:01 0° 269° (W) 2,050 6.1 -16.6°
Reaches altitude 10° 22:05:48 10° 266° (W) 1,210 4.9 -16.8°
Maximum altitude 22:08:12 68° 183° (S) 378 1.7 -16.9°
Enters shadow 22:08:18 67° 164° (SSE) 383 1.7 -16.9°
